Miscellaneous Local Product
Issued by NWS North Platte, NE

Home | Current Version | Previous Version | Graphics & Text | Print | Product List | Glossary On
Versions: 1 2 3 4 5 6 7 8 9 10 11 12 13 14 15 16 17 18 19 20 21 22 23 24 25 26 27 28 29 30 31 32 33 34 35 36 37 38 39 40 41 42 43 44 45 46 47 48 49 50
000
AXUS43 KLBF 260110
MISLBF


WESTERN AND NORTH CENTRAL NEBRASKA HOURLY WEATHER ROUNDUP
NATIONAL WEATHER SERVICE NORTH PLATTE NE
700 PM CST TUE NOV 25 2014

***STATIONS NOT REPORTING VARIABLES SUCH AS SKY/WEATHER OR
PRESSURE ARE PROVIDED BY THE NEBRASKA DEPARTMENT OF
ROADS...RAWS...AND APRS NETWORKS...AND ARE NOT UNDER
NATIONAL WEATHER SERVICE QUALITY CONTROL***

...OBSERVATIONS IN AND NEAR THE EASTERN PANHANDLE OF NEBRASKA...

CITY           SKY/WX    TMP DP  RH WIND       PRES   REMARKS
PINE RIDGE     CLOUDY    34  31  88 W3        29.88R
CHADRON        CLOUDY    48  29  47 NW17      29.90R
ALLIANCE       CLOUDY    36  28  73 NW12      29.88R WCI  28
SIDNEY         LGT SNOW  33  31  92 N20       29.93R FOG     WCI  21
WHITECLAY        N/A     33  29  85 NW3         N/A
CRESCENT LAKE    N/A     36  33  88 NW9G18      N/A  WCI  29
LISCO            N/A     39  28  64 W13         N/A  WCI  31
BIG SPRINGS      N/A     39  34  81 NW9         N/A  WCI  33
$$

...OBSERVATIONS IN NORTH CENTRAL NEBRASKA...

CITY           SKY/WX    TMP DP  RH WIND       PRES   REMARKS
VALENTINE      CLOUDY    36  32  85 W10       29.82R WCI  28
THEDFORD       CLOUDY    38  30  72 W12G20    29.86R WCI  31
AINSWORTH      CLOUDY    36  32  85 NW14      29.82R WCI  27
O`NEILL        CLOUDY    40  28  62 W5        29.79S
ORD            MOCLDY    39  25  57 SW15      29.81R WCI  31
BROKEN BOW     CLOUDY    43  28  55 W20       29.84R
BROWNLEE         N/A     38  30  72 W17         N/A  WCI  29
SPRINGVIEW       N/A     38  31  77 W10G20      N/A  WCI  31
BREWSTER         N/A     38  29  69 W15         N/A  WCI  29
SARGENT          N/A     39  29  68 W9G16       N/A  WCI  33
COMSTOCK         N/A     41  27  58 W9          N/A
CHAMBERS         N/A     38  23  55 S3          N/A
EWING            N/A     40  30  67 CALM        N/A
$$

...OBSERVATIONS IN SOUTHWEST NEBRASKA AND FAR NORTHEAST COLORADO...

CITY           SKY/WX    TMP DP  RH WIND       PRES   REMARKS
WRAY           CLOUDY    45  28  52 NW10      29.90R
HOLYOKE        FAIR      41  32  70 N20G26    29.90R
IMPERIAL       CLOUDY    43  30  60 NW21G29   29.89R
OGALLALA       CLOUDY    42  32  67 NW13      29.91R
NORTH PLATTE   CLOUDY    43  26  51 NW16G23   29.88R
MCCOOK         CLOUDY    41  21  44 NE6       29.86R
LEXINGTON      MOCLDY    36  22  57 W7        29.85R WCI  31
PAXTON           N/A     44  32  62 NW12        N/A
BRADY            N/A     39  25  58 CALM        N/A
GOTHENBURG       N/A     40  23  51 W8          N/A  WCI  34
CALLAWAY         N/A     41  29  63 NW13        N/A
$$

...NORTH PLATTE AREA...

CITY           SKY/WX    TMP DP  RH WIND       PRES   REMARKS
AIRPORT        CLOUDY    43  26  51 NW16G23   29.88R
DOWNTOWN         N/A     43  29  57 N12G20      N/A
$$

...SOME WEATHER OBSERVATIONS FROM AROUND THE REGION...

CITY           SKY/WX    TMP DP  RH WIND       PRES   REMARKS
DENVER         MOCLDY    41  20  43 W9        29.90S
LARAMIE        MOCLDY    33  24  69 W24G35    29.91R WCI  20
CHEYENNE       CLOUDY    40  24  53 NW22G41   29.88R WCI  30
SCOTTSBLUFF    MIX PCPN  34  32  92 W8        29.93S WCI  27
RAPID CITY     CLOUDY    36  24  62 NW17      29.87R WCI  26
PIERRE         CLOUDY    34  32  92 W10       29.78S WCI  26
WINNER         CLOUDY    37  31  78 W10       29.80R WCI  30
SIOUX FALLS    CLOUDY    34  22  61 SE14      29.83F WCI  25
OMAHA          CLOUDY    38  24  57 S14       29.95F WCI  30
GRAND ISLAND   CLOUDY    42  23  46 S7        29.83F
KANSAS CITY    CLOUDY    35  20  54 S10       30.06F WCI  27
WICHITA        CLOUDY    44  28  53 S13       30.02F
HAYS           CLOUDY    45  18  33 S10       29.89F
LIBERAL        CLOUDY    37  14  38 SW7       29.95R WCI  32
GOODLAND       CLOUDY    45  21  38 N12       29.91R
$$



USA.gov is the U.S. government's official web portal to all federal, state and local government web resources and services.